Location: Newark
(3.1475°N, 101.6933°E)
Time: 10:04:10
(UTC+00:00)

Envisat - Pass Details

Date: 28 September 2019
Orbit: 764 x 766 km, 98.1° (Epoch: 15 October)

Event Time Altitude Azimuth Distance (km) Brightness Sun altitude
Rises 12:33:11 0° 193° (SSW) 3,228 6.4 -22.4°
Reaches altitude 10° 12:35:54 10° 207° (SSW) 2,300 5.8 -23.1°
Maximum altitude 12:39:52 23° 258° (WSW) 1,574 5.4 -24.0°
Drops below altitude 10° 12:43:49 10° 310° (NW) 2,295 6.1 -25.0°
Sets 12:46:33 0° 324° (NW) 3,218 6.7 -25.7°
